Total_Precipitation_Accumulation
0.10 0.08 0.10 0.14 0.22 0.42 1.10 2.03 3.18 2.27 2.06 4.76 5.35 2.90 1.04 0.18 0.01 0.03 0.12 0.09 0.05 0.02 0.01 0.02 0.00 0.00 0.00 0.00 0.00 0.00 0.00 0.00 0.00 0.00 0.00 0.00 0.00 0.00 0.00 0.00 0.01 0.00 0.00 0.00
0.16 0.14 0.14 0.15 0.25 0.48 0.88 2.06 2.60 2.28 2.18 3.97 3.61 1.21 0.24 0.08 0.03 0.11 0.29 0.17 0.07 0.03 0.04 0.09 0.01 0.00 0.00 0.00 0.00 0.00 0.00 0.02 0.05 0.03 0.01 0.00 0.00 0.00 0.00 0.00 0.00 0.00 0.00 0.00
0.25 0.21 0.20 0.21 0.31 0.47 0.77 1.72 2.42 3.00 3.84 2.58 1.15 0.62 0.17 0.12 0.08 0.13 0.26 0.14 0.09 0.11 0.07 0.07 0.04 0.00 0.00 0.00 0.00 0.00 0.00 0.01 0.02 0.02 0.01 0.00 0.00 0.00 0.00 0.00 0.00 0.00 0.00 0.00
0.38 0.33 0.31 0.31 0.36 0.56 0.91 1.61 1.70 1.89 3.39 2.93 1.00 0.34 0.12 0.06 0.10 0.17 0.18 0.17 0.11 0.10 0.16 0.09 0.08 0.03 0.00 0.00 0.00 0.00 0.01 0.03 0.01 0.00 0.00 0.01 0.00 0.00 0.00 0.00 0.00 0.00 0.00 0.00
0.43 0.42 0.43 0.48 0.57 0.82 1.33 1.58 1.09 0.79 0.75 0.74 0.49 0.28 0.19 0.05 0.07 0.10 0.09 0.11 0.05 0.05 0.16 0.18 0.12 0.07 0.04 0.02 0.00 0.01 0.05 0.04 0.00 0.01 0.00 0.02 0.03 0.00 0.00 0.00 0.00 0.00 0.00 0.00
0.45 0.48 0.44 0.53 0.66 1.24 2.40 2.02 0.78 0.37 0.39 0.42 0.31 0.26 0.13 0.06 0.02 0.03 0.01 0.00 0.10 0.20 0.24 0.17 0.31 0.39 0.31 0.14 0.09 0.17 0.20 0.14 0.11 0.20 0.05 0.24 0.30 0.02 0.00 0.00 0.00 0.00 0.00 0.00
0.44 0.50 0.48 0.54 0.70 0.96 1.78 1.73 0.71 0.67 0.71 0.47 0.37 0.11 0.02 0.02 0.02 0.02 0.02 0.13 0.48 0.44 0.26 0.34 0.70 0.94 1.04 0.79 0.58 0.43 0.44 0.33 0.47 0.64 0.46 1.03 0.37 0.00 0.00 0.00 0.00 0.00 0.00 0.00
0.28 0.45 0.47 0.57 0.59 0.67 1.05 1.26 0.77 0.58 0.65 0.37 0.10 0.05 0.06 0.09 0.16 0.29 0.47 0.65 0.61 0.38 0.41 1.16 1.76 1.64 1.63 1.51 1.20 0.88 0.60 0.52 0.97 0.86 0.68 0.28 0.01 0.00 0.00 0.00 0.00 0.00 0.00 0.00
0.18 0.41 0.41 0.59 0.63 0.60 0.98 1.04 0.72 0.45 0.47 0.39 0.12 0.12 0.16 0.34 0.57 0.84 1.02 0.74 0.79 0.87 1.29 1.72 1.71 1.30 0.92 0.73 0.66 0.80 0.96 1.05 1.10 1.27 0.73 0.24 0.00 0.00 0.00 0.00 0.00 0.00 0.00 0.00
0.19 0.43 0.38 0.46 0.72 0.73 0.86 0.85 0.63 0.41 0.45 0.36 0.27 0.33 0.37 0.42 0.66 0.83 0.99 0.99 1.40 1.26 1.24 1.50 1.25 0.91 0.45 0.33 0.19 0.32 0.81 1.35 1.63 1.29 0.69 0.10 0.00 0.00 0.00 0.00 0.00 0.00 0.00 0.00
0.23 0.42 0.36 0.47 0.78 0.83 0.63 0.61 0.42 0.34 0.53 0.44 0.43 0.60 0.54 0.54 0.51 0.78 1.01 0.71 0.87 1.23 1.51 1.45 1.18 0.70 0.31 0.21 0.12 0.06 0.23 0.68 1.03 1.04 0.75 0.16 0.00 0.00 0.00 0.00 0.00 0.00 0.00 0.00
0.29 0.35 0.40 0.52 0.82 0.85 0.50 0.46 0.40 0.37 0.36 0.41 0.37 0.57 0.64 0.42 0.35 0.41 0.57 0.55 0.47 0.51 0.89 1.04 0.74 0.55 0.27 0.12 0.10 0.03 0.12 0.16 0.27 0.28 0.18 0.01 0.00 0.00 0.00 0.00 0.00 0.00 0.00 0.00
0.40 0.45 0.44 0.53 0.86 0.88 0.52 0.34 0.40 0.70 0.62 0.43 0.35 0.44 0.52 0.60 0.48 0.35 0.77 0.81 0.52 0.44 0.36 0.47 0.59 0.52 0.30 0.27 0.14 0.02 0.03 0.03 0.07 0.08 0.02 0.00 0.00 0.00 0.00 0.00 0.00 0.00 0.00 0.00
0.66 0.64 0.55 0.70 1.11 1.04 0.50 0.24 0.22 0.29 0.45 0.42 0.45 0.28 0.29 0.35 0.51 0.62 0.57 0.41 0.31 0.34 0.34 0.59 0.95 0.66 0.29 0.16 0.09 0.06 0.04 0.02 0.02 0.01 0.00 0.00 0.00 0.00 0.00 0.00 0.00 0.00 0.00 0.00
0.79 0.72 0.65 0.90 1.16 1.11 0.63 0.25 0.22 0.13 0.28 0.43 0.31 0.23 0.42 0.37 0.33 0.48 0.51 0.46 0.40 0.47 0.64 0.98 0.78 0.36 0.30 0.28 0.24 0.20 0.05 0.01 0.00 0.01 0.00 0.01 0.01 0.00 0.00 0.00 0.00 0.00 0.00 0.00
0.68 0.79 0.80 0.96 0.94 0.85 0.83 1.16 0.68 0.34 0.21 0.31 0.35 0.38 0.31 0.37 0.44 0.44 0.60 0.61 0.61 0.64 0.77 0.73 0.47 0.20 0.20 0.32 0.29 0.08 0.01 0.00 0.02 0.02 0.01 0.00 0.00 0.00 0.00 0.00 0.00 0.00 0.00 0.00
0.76 1.04 1.24 1.14 1.10 1.10 1.28 1.07 0.62 0.35 0.31 0.42 0.43 0.31 0.39 0.41 0.44 0.66 0.73 0.78 0.71 0.73 0.68 0.56 0.32 0.17 0.20 0.36 0.19 0.06 0.03 0.01 0.01 0.00 0.00 0.00 0.00 0.00 0.00 0.00 0.00 0.00 0.00 0.00
0.70 1.05 1.20 0.99 0.83 1.00 1.31 0.73 0.27 0.22 0.28 0.43 0.41 0.38 0.41 0.37 0.42 0.48 0.52 0.66 0.75 0.71 0.59 0.42 0.32 0.35 0.43 0.30 0.04 0.03 0.06 0.03 0.01 0.00 0.00 0.00 0.00 0.00 0.00 0.00 0.00 0.00 0.00 0.00
0.85 0.86 0.64 0.76 0.79 0.96 1.24 0.97 0.51 0.36 0.48 0.40 0.16 0.13 0.21 0.19 0.22 0.20 0.26 0.33 0.45 0.39 0.32 0.21 0.21 0.31 0.32 0.10 0.00 0.00 0.01 0.01 0.00 0.00 0.00 0.00 0.00 0.00 0.00 0.00 0.00 0.00 0.00 0.00
0.63 0.66 0.56 0.88 0.97 0.70 0.68 0.72 0.69 0.62 0.64 0.29 0.07 0.02 0.09 0.07 0.06 0.11 0.14 0.16 0.24 0.27 0.17 0.22 0.26 0.11 0.01 0.00 0.00 0.00 0.01 0.02 0.01 0.02 0.00 0.00 0.01 0.00 0.00 0.00 0.00 0.00 0.00 0.00
0.49 0.47 0.26 0.38 0.41 0.27 0.25 0.34 0.39 0.32 0.22 0.15 0.10 0.02 0.07 0.07 0.05 0.04 0.04 0.06 0.08 0.10 0.08 0.13 0.09 0.01 0.00 0.00 0.00 0.00 0.00 0.00 0.00 0.00 0.00 0.00 0.00 0.00 0.00 0.00 0.00 0.00 0.00 0.00
0.13 0.16 0.23 0.20 0.10 0.07 0.08 0.09 0.08 0.06 0.06 0.09 0.11 0.11 0.08 0.18 0.09 0.10 0.10 0.06 0.04 0.05 0.02 0.04 0.01 0.00 0.00 0.00 0.00 0.00 0.00 0.00 0.00 0.00 0.00 0.00 0.00 0.00 0.00 0.00 0.00 0.00 0.00 0.00
0.02 0.04 0.15 0.13 0.06 0.01 0.00 0.01 0.01 0.04 0.04 0.07 0.12 0.17 0.08 0.11 0.12 0.10 0.10 0.10 0.07 0.03 0.03 0.02 0.01 0.00 0.00 0.00 0.00 0.00 0.00 0.00 0.00 0.00 0.00 0.00 0.00 0.00 0.00 0.00 0.00 0.00 0.00 0.00
0.00 0.00 0.00 0.02 0.02 0.01 0.01 0.00 0.00 0.01 0.01 0.04 0.03 0.04 0.05 0.06 0.05 0.05 0.09 0.08 0.04 0.05 0.02 0.01 0.03 0.01 0.00 0.00 0.00 0.00 0.00 0.00 0.00 0.00 0.00 0.00 0.00 0.00 0.00 0.00 0.00 0.00 0.00 0.00
0.00 0.00 0.00 0.00 0.01 0.01 0.00 0.00 0.01 0.01 0.01 0.02 0.05 0.12 0.09 0.09 0.11 0.08 0.04 0.05 0.05 0.02 0.01 0.06 0.04 0.00 0.00 0.00 0.00 0.00 0.00 0.00 0.00 0.00 0.00 0.00 0.00 0.00 0.00 0.00 0.00 0.00 0.00 0.00
0.00 0.00 0.00 0.02 0.02 0.04 0.05 0.06 0.08 0.06 0.04 0.04 0.08 0.09 0.08 0.07 0.08 0.03 0.02 0.02 0.02 0.03 0.04 0.05 0.03 0.01 0.00 0.00 0.00 0.00 0.02 0.02 0.00 0.00 0.00 0.00 0.00 0.00 0.00 0.00 0.00 0.00 0.00 0.00
0.00 0.01 0.02 0.02 0.03 0.06 0.08 0.08 0.11 0.07 0.05 0.07 0.05 0.02 0.01 0.02 0.02 0.01 0.02 0.01 0.05 0.06 0.03 0.03 0.04 0.03 0.01 0.00 0.00 0.00 0.00 0.00 0.00 0.00 0.00 0.00 0.00 0.00 0.00 0.00 0.00 0.01 0.02 0.03